Location: Natural Bridges National Monument
(37.6093°N, 109.9767°W)
Time: 10:00:58
(UTC-07:00)

Amateur Radio Satellites - All Passes

Search period start: 23 November 2014 09:30
Search period end: 24 November 2014 09:30
Location: Natural Bridges National Monument, 37.6093°N, 109.9767°W

Satellite Date Start Highest point End Downlink Frequencies (MHz)
Time Altitude Azimuth
CUBEBUG 2 23 Nov 09:39:04 09:42:28 23° 96° (E) 09:45:54 437.445
Oscar 11 23 Nov 09:42:34 09:46:45 45° 99° (E) 09:50:54 145.826/435.025
CINEMA 3 23 Nov 09:44:02 09:48:03 42° 99° (E) 09:52:09 145.822/145.860
UWE-3 23 Nov 09:45:41 09:49:07 24° 96° (E) 09:52:35 435.000/436.395/437.385
SEEDS 23 Nov 09:53:03 09:57:09 46° 286° (WNW) 10:01:14 437.485
POLYITAN 1 23 Nov 09:53:28 09:57:16 32° 71° (ENE) 10:01:04 437.675
QB50P2 23 Nov 09:56:38 10:00:31 35° 72° (ENE) 10:04:25 145.880/145.840
TIGRISAT 23 Nov 09:57:22 10:01:31 51° 74° (ENE) 10:05:38 435.000
DX 1 23 Nov 10:01:20 10:05:40 66° 102° (ESE) 10:09:57 434.975-435.025
DUCHIFAT 1 23 Nov 10:04:32 10:08:33 42° 73° (ENE) 10:12:35 145.980
UNISAT 6 23 Nov 10:09:10 10:13:26 73° 76° (ENE) 10:17:42 437.425
AAUSAT CUBESAT 2 23 Nov 10:16:17 10:20:06 34° 288° (WNW) 10:23:54 437.432
CANX-2 23 Nov 10:17:34 10:20:45 21° 292° (WNW) 10:23:56 2200.000
VELOX 1 23 Nov 10:18:09 10:22:01 29° 97° (E) 10:25:50 145.980
NANOSAT C BR1 23 Nov 10:23:11 10:27:26 73° 76° (ENE) 10:31:41 145.865
DOVE 4 23 Nov 10:23:17 10:27:07 37° 287° (WNW) 10:31:01 437.250
ZACube-1 23 Nov 10:27:00 10:31:12 62° 101° (E) 10:35:27 437.345
COMPASS 1 23 Nov 10:29:56 10:33:11 22° 291° (WNW) 10:36:25 437.405
QB50P1 23 Nov 10:32:37 10:36:54 87° 257° (WSW) 10:41:11 145.935-145.965
HUMSAT D 23 Nov 10:33:02 10:36:59 42° 99° (E) 10:40:58 437.325/437.525
DELFI C3 23 Nov 10:36:30 10:40:28 46° 286° (WNW) 10:44:25 145.870
ANTELSAT 23 Nov 10:37:42 10:41:52 51° 260° (W) 10:46:02 437.575/2403.000
50 SAT 23 Nov 10:41:57 10:45:51 44° 99° (E) 10:49:44 437.505
AISAT 23 Nov 10:42:08 10:46:30 57° 101° (E) 10:50:49 437.250
GOMX 1 23 Nov 10:53:03 10:55:09 14° 294° (WNW) 10:57:15 467.674
HO-68 23 Nov 10:57:10 11:02:40 25° 300° (WNW) 11:08:09 435.675
POPSAT HIP 1 23 Nov 10:57:16 11:01:21 44° 261° (W) 11:05:26 437.405
BUGSAT 1 23 Nov 10:59:08 11:03:17 50° 260° (W) 11:07:26 437.445
FUNcube-1 23 Nov 11:03:03 11:07:06 48° 286° (WNW) 11:11:14 145.935
UKube-1 23 Nov 11:05:34 11:09:03 24° 292° (WNW) 11:12:31 .
CUBEBUG 1 23 Nov 11:06:30 11:10:32 35° 98° (E) 11:14:30 437.445
CUBEBUG 2 23 Nov 11:15:36 11:19:07 26° 290° (WNW) 11:22:41 437.445
Oscar 11 23 Nov 11:20:04 11:22:31 15° 294° (WNW) 11:24:59 145.826/435.025
GONETS M04 23 Nov 11:20:47 11:23:57 12° 300° (WNW) 11:27:08
UWE-3 23 Nov 11:22:07 11:25:36 25° 290° (WNW) 11:29:08 435.000/436.395/437.385
CINEMA 3 23 Nov 11:22:38 11:24:56 15° 293° (WNW) 11:27:15 145.822/145.860
POLYITAN 1 23 Nov 11:30:14 11:33:16 19° 266° (W) 11:36:18 437.675
QB50P2 23 Nov 11:33:42 11:36:32 17° 266° (W) 11:39:23 145.880/145.840
TIGRISAT 23 Nov 11:37:03 11:38:33 12° 268° (W) 11:40:03 435.000
DX 1 23 Nov 11:40:19 11:41:19 11° 297° (WNW) 11:42:18 434.975-435.025
ESTCUBE 1 23 Nov 11:42:08 11:46:42 85° 283° (WNW) 11:51:13 437.505/2401.250
DUCHIFAT 1 23 Nov 11:42:19 11:44:37 14° 267° (W) 11:46:55 145.980
VELOX 1 23 Nov 11:54:59 11:58:26 23° 292° (WNW) 12:01:53 145.980
ZACube-1 23 Nov 12:06:13 12:07:03 11° 296° (WNW) 12:07:54 437.345
HUMSAT D 23 Nov 12:10:09 12:12:27 15° 293° (WNW) 12:14:46 437.325/437.525
50 SAT 23 Nov 12:18:48 12:20:47 13° 294° (WNW) 12:22:46 437.505
AISAT 23 Nov 12:20:43 12:22:37 13° 296° (WNW) 12:24:31 437.250
Oscar 19 23 Nov 12:30:09 12:34:51 39° 70° (ENE) 12:39:34 437.125/150
TISAT 1 23 Nov 12:41:33 12:45:45 74° 284° (WNW) 12:49:56 437.305
SPROUT 23 Nov 12:42:11 12:46:29 84° 284° (WNW) 12:50:45 437.525
CUBEBUG 1 23 Nov 12:43:36 12:46:38 19° 293° (WNW) 12:49:38 437.445
SO-50 23 Nov 12:48:11 12:52:30 31° 51° (NE) 12:56:51 436.795
BEESAT 23 Nov 12:51:58 12:55:20 19° 94° (E) 12:58:40 436.000
AUBIESAT-1 23 Nov 12:57:56 13:02:11 29° 100° (E) 13:06:20 437.475
M-CUBED/EXP-1 PRIME 23 Nov 13:00:55 13:05:24 34° 101° (ESE) 13:09:46 437.505
ITAMSAT 1 23 Nov 13:16:34 13:21:27 42° 71° (ENE) 13:26:22 435.822/435.867
Gurwin Techsat 1B 23 Nov 13:32:16 13:36:59 34° 69° (ENE) 13:41:43 435.225
YUBILEINY 23 Nov 13:39:47 13:48:11 49° 77° (ENE) 13:56:29 435.215
ITUPSAT 1 23 Nov 13:44:44 13:49:33 68° 102° (ESE) 13:54:18 437.325
CUSAT 1 23 Nov 13:49:19 13:52:04 37° 280° (W) 13:54:33 437.405
SWISSCUBE 23 Nov 13:56:51 14:01:40 81° 284° (WNW) 14:06:26 437.505
DANDE 23 Nov 14:02:42 14:05:28 31° 280° (W) 14:07:54 436.750
KKS-1 23 Nov 14:04:33 14:07:57 21° 95° (E) 14:11:20 437.445
Oscar 19 23 Nov 14:10:21 14:14:16 22° 265° (W) 14:18:14 437.125/150
HORYU 2 23 Nov 14:16:05 14:20:07 36° 71° (ENE) 14:24:10 437.375
SO-50 23 Nov 14:28:43 14:33:01 31° 247° (WSW) 14:37:18 436.795
BEESAT 23 Nov 14:28:50 14:33:19 41° 289° (WNW) 14:37:47 436.000
AO-7 23 Nov 14:28:50 14:35:54 33° 60° (ENE) 14:42:59 29.400- 29.500
AUBIESAT-1 23 Nov 14:32:46 14:37:04 31° 295° (WNW) 14:41:19 437.475
M-CUBED/EXP-1 PRIME 23 Nov 14:36:07 14:40:14 27° 296° (WNW) 14:44:19 437.505
ITAMSAT 1 23 Nov 14:57:11 15:01:05 21° 266° (W) 15:05:00 435.822/435.867
STARS 23 Nov 15:05:30 15:09:53 71° 102° (ESE) 15:14:15 437.465
MaSat-1 23 Nov 15:06:06 15:08:24 19° 109° (ESE) 15:10:33 437.345
Gurwin Techsat 1B 23 Nov 15:12:26 15:16:55 28° 264° (W) 15:21:26 435.225
PHONESAT 2.4 23 Nov 15:14:16 15:17:20 25° 148° (SSE) 15:20:25 2401.200-2431.200
ITUPSAT 1 23 Nov 15:24:49 15:26:49 13° 298° (WNW) 15:28:49 437.325
JAS-2 23 Nov 15:35:28 15:41:34 28° 62° (ENE) 15:47:51 435.910
VERMONT LUNAR 23 Nov 15:36:09 15:39:38 47° 154° (SSE) 15:43:09 437.305
YUBILEINY 23 Nov 15:37:10 15:44:34 33° 275° (W) 15:51:58 435.215
KKS-1 23 Nov 15:40:43 15:44:36 31° 290° (WNW) 15:48:29 437.445
O/OREOS (USA 219) 23 Nov 15:51:36 15:55:22 26° 61° (ENE) 15:59:07 437.305
HORYU 2 23 Nov 15:53:49 15:56:53 18° 266° (W) 15:59:58 437.375
RS-15 23 Nov 15:57:50 16:08:14 50° 110° (ESE) 16:18:32 29.354- 29.394
CUTE-I 23 Nov 16:19:54 16:21:39 12° 60° (ENE) 16:23:24 437.470
AO-7 23 Nov 16:20:13 16:28:15 55° 258° (WSW) 16:36:23 29.400- 29.500
MOZHAYETS 4 23 Nov 16:25:57 16:29:23 20° 94° (E) 16:32:47
MaSat-1 23 Nov 16:41:06 16:42:56 15° 300° (WNW) 16:44:42 437.345
STARS 23 Nov 16:45:29 16:45:45 10° 297° (WNW) 16:46:01 437.465
PHONESAT 2.4 23 Nov 16:52:10 16:55:53 86° 343° (NNW) 16:59:38 2401.200-2431.200
Cubesat XI-IV 23 Nov 17:13:54 17:18:50 39° 70° (ENE) 17:23:47 437.490
VERMONT LUNAR 23 Nov 17:14:32 17:18:07 60° 350° (N) 17:21:44 437.305
JAS-2 23 Nov 17:18:33 17:25:55 63° 260° (W) 17:33:44 435.910
O/OREOS (USA 219) 23 Nov 17:30:57 17:34:40 26° 257° (WSW) 17:38:23 437.305
CUTE-I 23 Nov 17:55:34 18:00:56 87° 256° (WSW) 18:06:20 437.470
CUBESAT XI-V 23 Nov 18:00:36 18:02:59 14° 91° (E) 18:05:21 437.345
MOZHAYETS 4 23 Nov 18:02:26 18:06:41 36° 289° (WNW) 18:10:55
RS-15 23 Nov 18:10:15 18:20:36 46° 312° (NW) 18:31:03 29.354- 29.394
PHONESAT 2.4 23 Nov 18:31:15 18:34:54 52° 0° (N) 18:38:32 2401.200-2431.200
PRISM 23 Nov 18:35:16 18:39:32 83° 284° (WNW) 18:43:45 437.425
VERMONT LUNAR 23 Nov 18:53:17 18:56:53 57° 8° (N) 19:00:28 437.305
Cubesat XI-IV 23 Nov 18:54:41 18:58:59 24° 265° (W) 19:03:19 437.490
STRAND 1 23 Nov 19:04:05 19:09:10 63° 102° (ESE) 19:14:11 437.568
AIST 1 23 Nov 19:26:21 19:29:58 26° 89° (E) 19:33:36
GONETS M04 23 Nov 19:29:24 19:38:03 55° 78° (ENE) 19:46:35
CANX-2 23 Nov 19:33:35 19:36:28 18° 68° (ENE) 19:39:22 2200.000
AAUSAT CUBESAT 2 23 Nov 19:34:05 19:34:24 10° 64° (ENE) 19:34:43 437.432
HO-68 23 Nov 19:35:02 19:41:31 39° 65° (ENE) 19:48:02 435.675
CUBESAT XI-V 23 Nov 19:36:11 19:40:43 52° 286° (WNW) 19:45:12 437.345
COMPASS 1 23 Nov 19:45:07 19:47:42 16° 67° (ENE) 19:50:18 437.405
DOVE 4 23 Nov 19:51:23 19:54:02 15° 67° (ENE) 19:56:36 437.250
PCSat 23 Nov 20:02:51 20:08:09 62° 114° (ESE) 20:13:31 145.827
CUTE 1.7 & AOD 2 23 Nov 20:07:22 20:11:18 40° 73° (ENE) 20:15:15 437.475
PHONESAT 2.4 23 Nov 20:10:10 20:13:54 87° 17° (NNE) 20:17:36 2401.200-2431.200
BEESAT 3 23 Nov 20:18:41 20:22:24 35° 114° (ESE) 20:26:11 437.485
GOMX 1 23 Nov 20:19:33 20:24:09 42° 73° (ENE) 20:28:29 467.674
UKube-1 23 Nov 20:23:25 20:26:32 20° 67° (ENE) 20:29:39 .
RS-15 23 Nov 20:30:17 20:36:52 17° 343° (NNW) 20:43:33 29.354- 29.394
BEESAT 2 23 Nov 20:31:48 20:35:42 44° 115° (ESE) 20:39:41 435.950
VERMONT LUNAR 23 Nov 20:31:51 20:35:24 55° 204° (SSW) 20:38:57 437.305
BRITE-PL 23 Nov 20:34:43 20:39:55 85° 77° (ENE) 20:44:43 437.365/2234.400
Oscar 11 23 Nov 20:36:01 20:39:40 28° 70° (ENE) 20:43:20 145.826/435.025
CUBEBUG 2 23 Nov 20:36:55 20:39:37 17° 67° (ENE) 20:42:17 437.445
UWE-3 23 Nov 20:42:29 20:45:08 16° 67° (ENE) 20:47:46 435.000/436.395/437.385
SEEDS 23 Nov 20:43:22 20:47:33 86° 258° (WSW) 20:51:46 437.485
CINEMA 3 23 Nov 20:44:30 20:48:29 33° 72° (ENE) 20:52:20 145.822/145.860
STRAND 1 23 Nov 20:45:00 20:47:46 15° 297° (WNW) 20:50:32 437.568
AIST 2 23 Nov 20:55:04 20:58:58 38° 114° (ESE) 21:02:57 435.215
DX 1 23 Nov 20:55:11 20:59:21 45° 72° (ENE) 21:03:32 434.975-435.025
AIST 1 23 Nov 21:04:01 21:07:32 23° 285° (WNW) 21:11:06
AAUSAT CUBESAT 2 23 Nov 21:05:25 21:09:31 63° 259° (W) 21:13:39 437.432
CANX-2 23 Nov 21:08:20 21:12:09 33° 263° (W) 21:16:00 2200.000
VELOX 1 23 Nov 21:14:48 21:18:16 22° 68° (ENE) 21:21:44 145.980
COMPASS 1 23 Nov 21:19:16 21:23:07 37° 262° (W) 21:27:01 437.405
ZACube-1 23 Nov 21:21:44 21:25:40 38° 73° (ENE) 21:29:33 437.345
HO-68 23 Nov 21:22:34 21:29:08 38° 262° (W) 21:35:45 435.675
DELFI C3 23 Nov 21:23:12 21:27:15 85° 77° (ENE) 21:31:21 145.870
HUMSAT D 23 Nov 21:24:17 21:27:37 24° 70° (ENE) 21:30:57 437.325/437.525
DOVE 4 23 Nov 21:26:53 21:31:28 48° 260° (W) 21:35:49 437.250
GONETS M04 23 Nov 21:27:04 21:34:19 30° 276° (W) 21:41:31
50 SAT 23 Nov 21:29:52 21:33:03 23° 70° (ENE) 21:36:13 437.505
AISAT 23 Nov 21:38:38 21:42:50 41° 72° (ENE) 21:47:03 437.250
CUTE 1.7 & AOD 2 23 Nov 21:45:02 21:47:24 15° 268° (W) 21:49:47 437.475
PCSat 23 Nov 21:48:08 21:52:00 20° 311° (NW) 21:55:52 145.827
PHONESAT 2.4 23 Nov 21:49:24 21:52:26 24° 212° (SSW) 21:55:28 2401.200-2431.200
TIGRISAT 23 Nov 21:52:51 21:54:45 13° 92° (E) 21:56:41 435.000
FUNcube-1 23 Nov 21:57:08 22:01:23 80° 258° (WSW) 22:05:35 145.935
BEESAT 3 23 Nov 21:57:35 22:00:43 21° 311° (NW) 22:03:55 437.485
UKube-1 23 Nov 21:58:29 22:02:27 34° 262° (W) 22:06:26 .
GOMX 1 23 Nov 21:59:03 22:02:22 18° 266° (W) 22:05:33 467.674
CUBEBUG 1 23 Nov 22:01:27 22:05:04 25° 69° (ENE) 22:08:42 437.445
UNISAT 6 23 Nov 22:04:08 22:07:09 18° 94° (E) 22:10:11 437.425
BEESAT 2 23 Nov 22:11:25 22:14:13 17° 313° (NW) 22:17:04 435.950
CUBEBUG 2 23 Nov 22:12:01 22:16:02 38° 262° (W) 22:19:59 437.445
VERMONT LUNAR 23 Nov 22:12:06 22:13:23 12° 218° (SW) 22:14:40 437.305
NANOSAT C BR1 23 Nov 22:12:23 22:14:30 14° 92° (E) 22:16:36 145.865
Oscar 11 23 Nov 22:12:27 22:15:48 22° 265° (W) 22:19:11 145.826/435.025
UWE-3 23 Nov 22:17:24 22:21:24 38° 262° (W) 22:25:20 435.000/436.395/437.385
QB50P1 23 Nov 22:21:18 22:24:09 17° 94° (E) 22:26:58 145.935-145.965
CINEMA 3 23 Nov 22:22:31 22:25:44 19° 265° (W) 22:28:52 145.822/145.860
ANTELSAT 23 Nov 22:31:41 22:35:48 36° 98° (E) 22:39:58 437.575/2403.000
DX 1 23 Nov 22:33:24 22:35:48 14° 267° (W) 22:38:13 434.975-435.025
AIST 2 23 Nov 22:34:33 22:37:44 20° 311° (NW) 22:40:58 435.215
ESTCUBE 1 23 Nov 22:39:53 22:44:24 71° 75° (ENE) 22:48:57 437.505/2401.250
BUGSAT 1 23 Nov 22:44:20 22:47:45 25° 96° (E) 22:51:08 437.445
POPSAT HIP 1 23 Nov 22:44:58 22:48:47 33° 98° (E) 22:52:35 437.405
RS-15 23 Nov 22:48:22 22:55:38 19° 21° (NNE) 23:03:01 29.354- 29.394
VELOX 1 23 Nov 22:50:42 22:54:40 31° 263° (W) 22:58:39 145.980
ZACube-1 23 Nov 22:59:40 23:02:10 15° 267° (W) 23:04:40 437.345
HUMSAT D 23 Nov 22:59:59 23:03:21 24° 264° (W) 23:06:42 437.325/437.525
50 SAT 23 Nov 23:04:58 23:08:16 24° 264° (W) 23:11:34 437.505
ISS 23 Nov 23:07:19 23:09:17 15° 129° (SE) 23:11:16 145.825
POLYITAN 1 23 Nov 23:16:42 23:20:57 83° 103° (ESE) 23:25:10 437.675
AISAT 23 Nov 23:16:48 23:19:38 16° 267° (W) 23:22:28 437.250
QB50P2 23 Nov 23:19:43 23:23:58 89° 95° (E) 23:28:12 145.880/145.840
DUCHIFAT 1 23 Nov 23:27:24 23:31:37 75° 284° (WNW) 23:35:48 145.980
TIGRISAT 23 Nov 23:27:28 23:31:46 52° 286° (WNW) 23:36:08 435.000
TISAT 1 23 Nov 23:32:11 23:36:25 64° 75° (ENE) 23:40:40 437.305
SPROUT 23 Nov 23:34:30 23:38:45 58° 75° (ENE) 23:43:00 437.525
CUBEBUG 1 23 Nov 23:37:33 23:41:20 27° 264° (W) 23:45:07 437.445
UNISAT 6 23 Nov 23:39:57 23:44:02 38° 288° (WNW) 23:48:12 437.425
AUBIESAT-1 23 Nov 23:46:16 23:49:31 24° 63° (ENE) 23:53:01 437.475
NANOSAT C BR1 23 Nov 23:46:35 23:50:36 43° 287° (WNW) 23:54:35 145.865
M-CUBED/EXP-1 PRIME 23 Nov 23:49:34 23:53:00 29° 64° (ENE) 23:56:44 437.505
QB50P1 23 Nov 23:56:19 00:00:07 34° 289° (WNW) 00:03:55 145.935-145.965
BEESAT 23 Nov 23:57:17 00:00:33 19° 65° (ENE) 00:03:49 436.000
ANTELSAT 24 Nov 00:09:12 00:12:21 19° 292° (WNW) 00:15:32 437.575/2403.000
BUGSAT 1 24 Nov 00:19:59 00:23:07 22° 291° (WNW) 00:26:14 437.445
POPSAT HIP 1 24 Nov 00:21:31 00:24:27 19° 292° (WNW) 00:27:22 437.405
CUSAT 1 24 Nov 00:26:59 00:31:33 87° 82° (E) 00:37:46 437.405
ISS 24 Nov 00:42:27 00:45:38 47° 324° (NW) 00:48:50 145.825
DANDE 24 Nov 00:42:32 00:46:56 79° 262° (W) 00:52:57 436.750
Oscar 19 24 Nov 00:44:46 00:47:51 16° 92° (E) 00:50:57 437.125/150
MaSat-1 24 Nov 00:46:53 00:48:15 14° 60° (ENE) 00:49:38 437.345
ITUPSAT 1 24 Nov 00:49:43 00:54:28 63° 74° (ENE) 00:59:14 437.325
RS-15 24 Nov 01:00:33 01:11:28 53° 51° (NE) 01:22:48 29.354- 29.394
SWISSCUBE 24 Nov 01:01:33 01:06:21 88° 257° (WSW) 01:11:11 437.505
KKS-1 24 Nov 01:01:58 01:04:47 17° 66° (ENE) 01:07:36 437.445
JUGNU 24 Nov 01:10:23 01:12:38 12° 173° (S) 01:14:53 437.505
SPROUT 24 Nov 01:14:11 01:15:10 11° 269° (W) 01:16:10 437.525
AUBIESAT-1 24 Nov 01:21:11 01:24:26 25° 261° (W) 01:27:57 437.475
M-CUBED/EXP-1 PRIME 24 Nov 01:25:09 01:28:06 21° 262° (W) 01:31:17 437.505
ITAMSAT 1 24 Nov 01:32:29 01:35:50 17° 93° (E) 01:39:11 435.822/435.867
BEESAT 24 Nov 01:33:29 01:38:02 44° 261° (W) 01:42:37 436.000
Gurwin Techsat 1B 24 Nov 01:51:33 01:54:34 15° 92° (E) 01:57:35 435.225
STARS 24 Nov 02:00:54 02:05:09 49° 73° (ENE) 02:09:24 437.465
ISS 24 Nov 02:21:53 02:22:57 11° 342° (NNW) 02:24:01 145.825
Oscar 19 24 Nov 02:22:28 02:27:29 55° 287° (WNW) 02:32:31 437.125/150
ITUPSAT 1 24 Nov 02:30:53 02:32:44 12° 269° (W) 02:34:36 437.325
KKS-1 24 Nov 02:36:51 02:41:04 42° 261° (W) 02:45:19 437.445
YUBILEINY 24 Nov 02:37:44 02:46:20 61° 91° (E) 02:54:55 435.215
JUGNU 24 Nov 02:58:08 03:00:48 13° 184° (S) 03:03:29 437.505
SO-50 24 Nov 03:03:33 03:05:39 13° 107° (ESE) 03:07:46 436.795
SRMSAT 24 Nov 03:04:39 03:07:19 13° 176° (S) 03:09:59 437.500
ITAMSAT 1 24 Nov 03:10:35 03:15:35 50° 288° (WNW) 03:20:33 435.822/435.867
RS-15 24 Nov 03:13:14 03:23:39 45° 251° (WSW) 03:34:32 29.354- 29.394
MOZHAYETS 4 24 Nov 03:27:09 03:29:54 16° 65° (ENE) 03:32:41
Gurwin Techsat 1B 24 Nov 03:29:40 03:34:54 59° 287° (WNW) 03:40:05 435.225
STARS 24 Nov 03:39:46 03:41:53 13° 268° (W) 03:44:01 437.465
HORYU 2 24 Nov 03:45:41 03:50:11 83° 284° (WNW) 03:54:41 437.375
AO-7 24 Nov 04:23:35 04:31:51 60° 103° (ESE) 04:40:04 29.400- 29.500
JAS-2 24 Nov 04:32:36 04:38:01 24° 90° (E) 04:42:57 435.910
YUBILEINY 24 Nov 04:36:27 04:43:38 27° 290° (WNW) 04:50:50 435.215
SO-50 24 Nov 04:41:11 04:45:37 58° 303° (WNW) 04:50:12 436.795
BEESAT 3 24 Nov 04:41:12 04:43:44 15° 46° (NE) 04:46:14 437.485
PCSat 24 Nov 04:52:55 04:57:49 33° 55° (NE) 05:02:40 145.827
SRMSAT 24 Nov 04:53:14 04:55:39 13° 186° (S) 04:58:03 437.500
BEESAT 2 24 Nov 04:54:31 04:57:30 19° 48° (NE) 05:00:28 435.950
MOZHAYETS 4 24 Nov 05:02:19 05:06:43 47° 261° (W) 05:11:10
CUBESAT XI-V 24 Nov 05:03:27 05:05:16 12° 63° (ENE) 05:07:07 437.345
AIST 2 24 Nov 05:19:31 05:22:27 18° 47° (NE) 05:25:21 435.215
PRISM 24 Nov 05:24:13 05:28:19 55° 74° (ENE) 05:32:27 437.425
Cubesat XI-IV 24 Nov 05:34:10 05:37:39 18° 93° (E) 05:41:08 437.490
ISS 24 Nov 05:36:42 05:38:45 15° 23° (NNE) 05:40:48 145.825
O/OREOS (USA 219) 24 Nov 06:01:33 06:05:47 42° 106° (ESE) 06:10:01 437.305
CUTE-I 24 Nov 06:14:57 06:20:01 43° 99° (E) 06:25:02 437.470
JAS-2 24 Nov 06:16:34 06:23:31 55° 290° (WNW) 06:29:39 435.910
AO-7 24 Nov 06:17:10 06:24:06 31° 301° (WNW) 06:31:02 29.400- 29.500
STRAND 1 24 Nov 06:17:58 06:23:06 75° 75° (ENE) 06:28:15 437.568
BEESAT 3 24 Nov 06:18:12 06:22:17 54° 243° (WSW) 06:26:19 437.485
BEESAT 2 24 Nov 06:32:01 06:35:59 42° 245° (WSW) 06:39:54 435.950
PCSat 24 Nov 06:36:23 06:41:08 32° 251° (WSW) 06:45:51 145.827
CUBESAT XI-V 24 Nov 06:37:25 06:42:06 68° 259° (W) 06:46:50 437.345
AIST 2 24 Nov 06:57:12 07:01:21 48° 244° (WSW) 07:05:25 435.215
PRISM 24 Nov 07:03:17 07:04:12 11° 269° (W) 07:05:06 437.425
AIST 1 24 Nov 07:12:22 07:16:45 70° 82° (E) 07:21:04
ISS 24 Nov 07:12:28 07:15:47 87° 221° (SW) 07:19:05 145.825
Cubesat XI-IV 24 Nov 07:12:52 07:18:01 52° 288° (WNW) 07:23:09 437.490
O/OREOS (USA 219) 24 Nov 07:42:23 07:45:22 17° 302° (WNW) 07:48:22 437.305
CUTE-I 24 Nov 07:55:45 07:59:45 22° 295° (WNW) 08:03:45 437.470
STRAND 1 24 Nov 08:01:19 08:02:47 11° 270° (W) 08:04:15 437.568
GOMX 1 24 Nov 08:25:31 08:26:50 11° 92° (E) 08:28:09 467.674
GONETS M04 24 Nov 08:27:25 08:36:05 67° 92° (E) 08:44:50
SEEDS 24 Nov 08:31:07 08:34:07 18° 94° (E) 08:37:06 437.485
BRITE-PL 24 Nov 08:42:15 08:45:44 26° 96° (E) 08:49:15 437.365/2234.400
AAUSAT CUBESAT 2 24 Nov 08:51:37 08:55:01 23° 95° (E) 08:58:25 437.432
HO-68 24 Nov 08:51:42 08:58:34 47° 100° (E) 09:05:23 435.675
CANX-2 24 Nov 08:55:28 08:59:36 45° 99° (E) 09:03:43 2200.000
UNISAT 6 24 Nov 09:03:17 09:05:08 13° 65° (ENE) 09:07:00 437.425
COMPASS 1 24 Nov 09:05:05 09:09:04 38° 98° (E) 09:13:02 437.405
DELFI C3 24 Nov 09:07:38 09:09:53 14° 93° (E) 09:12:07 145.870
QB50P1 24 Nov 09:14:25 09:15:52 12° 64° (ENE) 09:17:18 145.935-145.965
